Location: Pl�tzky
(52.0521°N, 11.8020°E)
Time: 00:47:46
(UTC+00:00)

Cosmos 2228 Rocket - Pass Details

Date: 22 November 2019
Orbit: 619 x 651 km, 82.5° (Epoch: 14 December)

Event Time Altitude Azimuth Distance (km) Brightness Sun altitude
Rises 16:52:59 0° 165° (SSE) 2,922 6.5 -14.9°
Reaches altitude 10° 16:55:20 10° 157° (SSE) 2,025 5.6 -15.2°
Maximum altitude 16:59:27 36° 91° (E) 1,014 3.6 -15.9°
Enters shadow 17:01:53 21° 38° (NE) 1,459 4.5 -16.2°
